Regional Weather Roundup
Issued by NWS

Home | Current Version | Previous Version | Text Only | Print | Product List | Glossary Off
Versions: 1 2 3 4 5 6 7 8 9 10 11 12 13 14 15 16 17 18 19 20 21 22 23 24 25 26 27 28 29 30 31 32 33 34 35 36 37 38 39 40 41 42 43 44 45 46 47 48 49 50

000
ASUS43 KIND 232159
RWRIN

WEATHER ROUNDUP FOR INDIANA
NATIONAL WEATHER SERVICE INDIANAPOLIS IN
600 PM EDT SAT MAY 23 2015

NOTE: "FAIR" INDICATES FEW OR NO CLOUDS BELOW 12,000 FEET WITH NO
SIGNIFICANT WEATHER AND/OR OBSTRUCTIONS TO VISIBILITY.

* - STATION DOES NOT REPORT WEATHER SUCH AS PRECIPITATION OR FOG.

+ - STATION NOT QUALITY CONTROLLED BY THE NATIONAL WEATHER SERVICE.
    USE DATA WITH CAUTION...ESPECIALLY DEWPOINT AND RELATIVE
    HUMIDITY OBSERVATIONS.

INZ001>003-010>013-019-020-232300-
NORTHWEST INDIANA

CITY           SKY/WX    TMP DP  RH WIND       PRES   REMARKS
MONTICELLO +   MOSUNNY   78  47  33 S10       30.24F
RENSSELAER +   SUNNY     81  41  24 S12       30.23F

$$

LMZ046-743>745-232300-
SOUTHERN LAKE MICHIGAN

STATION/POSITION TIME  TEMP    WIND        PRES    WAVE
                       AIR SEA DIR/SP/G            HT
                 (UTC) (F)     (DEG/KT/KT) (MB)    (FT)
BURNS HARBOR     2100   61      80/ 12/ 15 1024.0F
MICHIGAN CITY    2100   60      40/ 12/ 12   N/A
5NW MICH CITY    2100   58 55   80/  6/  8   N/A     1

$$

INZ004-005-014>016-021>024-232300-
NORTH CENTRAL INDIANA

CITY           SKY/WX    TMP DP  RH WIND       PRES   REMARKS
ELKHART        MOSUNNY   81  39  22 SW3       30.25F
GOSHEN         MOSUNNY   78  46  32 SW9       30.25F
SOUTH BEND     MOSUNNY   80  38  22 SW10      30.25F
WARSAW +       MOSUNNY   77  45  31 S3        30.26F

$$

INZ006>009-017-018-025>027-232300-
NORTHEAST INDIANA

CITY           SKY/WX    TMP DP  RH WIND       PRES   REMARKS
ANGOLA *+      SUNNY     79  72  78 W8        30.27F
FORT WAYNE     MOSUNNY   78  46  32 SW6       30.28F

$$

INZ028-029-035-036-043>045-051>053-232300-
WEST CENTRAL INDIANA

CITY           SKY/WX    TMP DP  RH WIND       PRES   REMARKS
CRAWFORDSVL +  SUNNY     76  35  22 S6        30.26F
GREENCASTLE +  MOSUNNY   75  39  27 SE8       30.27F
LAFAYETTE      SUNNY     77  44  30 S7        30.24F
TERRE HAUTE    SUNNY     78  49  35 S9        30.25F

$$

INZ030>032-037>040-046>048-054>057-064-065-232300-
CENTRAL INDIANA

CITY           SKY/WX    TMP DP  RH WIND       PRES   REMARKS
COLUMBUS       MOSUNNY   75  36  23 S9        30.29F
INDIANAPOLIS   PTSUNNY   78  42  27 S12       30.26F
-EAGLE CREEK   SUNNY     77  40  26 S9        30.26F
KOKOMO *+      MOSUNNY   79  45  29 S9        30.26F
MT COMFORT *+  SUNNY     79   5   6 S12G18    30.29S
SHELBYVILLE    SUNNY     81  41  24 SE12G22   30.28F

$$

INZ033-034-041-042-049-050-058-059-232300-
EAST CENTRAL INDIANA

CITY           SKY/WX    TMP DP  RH WIND       PRES   REMARKS
MUNCIE         PTSUNNY   79  42  26 VRB6      30.28F

$$

INZ060-061-067>069-081>083-085>088-232300-
SOUTHWEST INDIANA

CITY           SKY/WX    TMP DP  RH WIND       PRES   REMARKS
EVANSVILLE     SUNNY     78  48  34 SE7       30.25F
HUNTINGBURG *+ SUNNY     79  48  34 E8        30.26F

$$

INZ062-063-066-070>080-084-089>092-232300-
SOUTH CENTRAL AND SOUTHEAST INDIANA

CITY           SKY/WX    TMP DP  RH WIND       PRES   REMARKS
BLOOMINGTON    MOSUNNY   78  45  30 S8        30.27F
MADISON *+     SUNNY     77  39  25 SE7       30.31F

$$



USA.gov is the U.S. government's official web portal to all federal, state and local government web resources and services.